[[{"header":{"parameterUnit":"m.s-1","parameterCategory":1,"la1":30.2991,"la2":30.254,"lo1":-89.0895,"lo2":-89.0444,"dy":0.0017,"dx":0.0017,"nx":28,"ny":28,"refTime":"2024-12-04T03:00:00:Z","depth":0,"parameterNumber":2,"parameterNumberName":"U-component_of_WINDS"},"data":[0,0,0,0,0,0,0,0,0,0,0,0,0,0,0,0,0,0,0,0,0,0,0,0,0,0,0,0,0,0,0,0,0,0,0,0,0,0,0,0,0,0,0,0,0,0,0,0,0,0,0,0,0,0,0,0,0,0,-0.82,-0.8201,0,-0.8288,-0.8289,-0.829,-0.8352,-0.8352,-0.8353,-0.8353,-0.8443,-0.8445,-0.8447,0,0,0,0,0,0,0,0,0,0,0,0,0,-0.8087,-0.8089,-0.82,-0.8201,-0.8202,-0.8288,-0.8289,-0.829,-0.8351,-0.8352,-0.8353,-0.8353,-0.8442,-0.8444,-0.8447,0,0,0,0,0,0,0,0,0,0,0,0,0,-0.8152,-0.8089,-0.82,-0.8243,-0.8248,-0.8288,-0.8289,-0.8291,-0.8351,-0.8352,-0.8353,-0.8353,-0.8441,-0.8444,-0.8447,-0.8451,0,0,-0.8456,-0.8457,0,0,0,0,0,0,0,0,-0.8148,-0.8156,-0.8236,-0.824,-0.8246,-0.831,-0.8282,-0.8344,-0.8351,-0.8312,-0.8353,-0.8354,-0.8398,-0.8404,-0.8419,-0.8455,-0.8459,-0.8456,-0.8458,-0.8459,-0.846,0,0,0,0,0,0,0,-0.8143,-0.8152,-0.8235,-0.8237,-0.8243,-0.8259,-0.8269,-0.8294,-0.835,-0.8316,-0.832,-0.833,-0.8401,-0.8416,-0.8422,-0.846,-0.8456,-0.8459,-0.8461,-0.8462,-0.8505,-0.8504,0,0,0,0,0,0,-0.8132,-0.8148,-0.8232,-0.8238,-0.8198,-0.826,-0.8271,-0.8288,-0.835,-0.836,-0.8329,-0.8332,-0.8411,-0.8418,-0.8425,-0.8434,-0.8459,-0.8462,-0.8464,-0.8505,-0.8505,-0.8504,0,0,0,0,0,0,-0.8129,-0.8139,-0.8229,-0.8194,-0.8207,-0.8261,-0.828,-0.829,-0.8305,-0.836,-0.837,-0.8335,-0.8412,-0.8421,-0.8444,-0.8438,-0.8463,-0.8466,-0.8506,-0.8505,-0.8504,-0.8452,0,0,0,0,0,0,-0.8126,-0.8138,-0.8139,-0.8194,-0.8208,-0.8246,-0.828,-0.8291,-0.831,-0.8315,-0.8368,-0.8377,-0.8413,-0.844,-0.8447,-0.8443,-0.8468,-0.8507,-0.8506,-0.8504,-0.8454,-0.8449,-0.8445,0,0,0,0,0,-0.8122,-0.8121,-0.8139,-0.8149,-0.8211,-0.8245,-0.8254,-0.8295,-0.8309,-0.8312,-0.8347,-0.8376,-0.8438,-0.8441,-0.845,-0.8447,-0.8507,-0.8506,-0.8505,-0.8456,-0.845,-0.8445,0,0,0,0,0,0,-0.8063,-0.8128,-0.8149,-0.8166,-0.82,-0.8255,-0.8259,-0.8287,-0.8317,-0.832,-0.837,-0.8381,-0.84,-0.8426,-0.8429,-0.8454,-0.8476,-0.8476,-0.8436,-0.8431,-0.8426,-0.842,-0.8471,0,0,0,0,0,-0.8052,-0.8074,-0.813,-0.8139,-0.8155,-0.8204,-0.822,-0.8249,-0.8286,-0.8301,-0.8338,-0.8372,-0.84,-0.8417,-0.8445,-0.8459,-0.8472,-0.8461,-0.8456,-0.8452,-0.8452,-0.8462,-0.8458,-0.8499,-0.8499,-0.8499,0,0,-0.803,-0.8068,-0.8079,-0.8129,-0.8158,-0.818,-0.8216,-0.8237,-0.8254,-0.8304,-0.8328,-0.8357,-0.8399,-0.8417,-0.8427,-0.844,-0.8443,-0.845,-0.8446,-0.8449,-0.846,-0.8456,-0.8452,-0.8498,-0.8499,-0.8499,0,0,-0.8001,-0.8031,-0.8043,-0.8072,-0.8116,-0.8149,-0.8152,-0.8204,-0.8225,-0.825,-0.8289,-0.831,-0.8356,-0.8385,-0.8406,-0.8389,-0.8416,-0.8397,-0.8372,-0.8381,-0.8378,-0.8375,-0.837,-0.8367,-0.8396,-0.8396,-0.8396,0,-0.7967,-0.8001,-0.8045,-0.8065,-0.8086,-0.8133,-0.8146,-0.8172,-0.8223,-0.8236,-0.825,-0.831,-0.8341,-0.8368,-0.8364,-0.8379,-0.8384,-0.839,-0.8375,-0.8372,-0.8371,-0.8366,-0.8364,-0.8393,-0.8394,-0.8394,-0.8394,0,-0.7959,-0.7982,-0.7986,-0.8034,-0.8056,-0.8072,-0.8119,-0.8136,-0.8163,-0.8195,-0.8221,-0.8261,-0.8298,-0.8307,-0.8334,-0.8338,-0.8344,-0.8365,-0.8388,-0.8363,-0.836,-0.8358,-0.8389,-0.839,-0.8391,-0.8392,0,0,-0.7894,-0.7968,-0.7968,-0.7992,-0.8045,-0.8064,-0.8082,-0.8119,-0.8133,-0.8167,-0.8184,-0.8223,-0.8243,-0.8267,-0.8298,-0.8306,-0.8291,-0.8326,-0.8328,-0.8319,-0.8298,-0.8282,-0.8279,-0.831,-0.8309,-0.8309,-0.8295,0,-0.7873,-0.7908,-0.7949,-0.797,-0.7993,-0.8038,-0.8055,-0.8089,-0.812,-0.8144,-0.8178,-0.8205,-0.8229,-0.8244,-0.8254,-0.829,-0.8287,-0.8292,-0.8327,-0.8327,-0.8314,-0.8277,-0.826,-0.8245,-0.8294,-0.8294,-0.8294,0,-0.7853,-0.7885,-0.7908,-0.796,-0.7971,-0.7985,-0.8023,-0.8045,-0.8086,-0.8108,-0.8135,-0.8168,-0.819,-0.8211,-0.8243,-0.8245,-0.8262,-0.8282,-0.8283,-0.8287,-0.8309,-0.8281,-0.8241,-0.8238,-0.8292,-0.8292,-0.8292,0,-0.7804,-0.7853,-0.7874,-0.7892,-0.7953,-0.7962,-0.7988,-0.8029,-0.8049,-0.8083,-0.8097,-0.8132,-0.8151,-0.8179,-0.8221,-0.8231,-0.8249,-0.8272,-0.8268,-0.8267,-0.8269,-0.8268,-0.8231,-0.828,-0.828,-0.828,-0.828,0,-0.7776,-0.7789,-0.7853,-0.7865,-0.7882,-0.7929,-0.7944,-0.7974,-0.8011,-0.8031,-0.8072,-0.809,-0.8145,-0.8169,-0.8203,-0.8225,-0.8233,-0.8252,-0.826,-0.8248,-0.8246,-0.826,-0.8262,-0.8279,-0.8279,-0.8279,-0.8279,0,-0.7724,-0.7767,-0.7793,-0.7849,-0.7863,-0.7873,-0.7921,-0.7936,-0.7969,-0.7994,-0.8003,-0.8055,-0.8086,-0.8131,-0.8176,-0.8198,-0.8216,-0.823,-0.8202,-0.8207,-0.82,-0.82,-0.817,-0.8169,-0.8218,-0.8217,-0.8217,0,-0.7703,-0.7714,-0.7771,-0.7788,-0.7812,-0.7838,-0.7859,-0.7907,-0.7927,-0.7975,-0.7984,-0.8018,-0.8048,-0.8097,-0.8139,-0.8174,-0.8189,-0.8176,-0.8194,-0.8182,-0.8189,-0.8188,-0.819,-0.8171,-0.8171,-0.817,-0.8169,0,-0.7662,-0.7683,-0.7712,-0.7748,-0.7772,-0.7803,-0.7835,-0.7847,-0.7901,-0.7922,-0.7955,-0.7978,-0.8024,-0.8059,-0.8099,-0.8127,-0.8157,-0.8163,-0.8164,-0.8152,-0.8135,-0.8145,-0.819,-0.8164,-0.8164,-0.8165,-0.8165,-0.8165,-0.7626,-0.7638,-0.768,-0.7711,-0.7741,-0.7771,-0.7788,-0.7823,-0.7851,-0.7892,-0.7919,-0.7951,-0.7992,-0.805,-0.8077,-0.8102,-0.8115,-0.8116,-0.8116,-0.8116,-0.8112,-0.8131,-0.811,-0.811,-0.811,-0.8111,-0.8111,0,-0.7587,-0.7617,-0.7645,-0.769,-0.7714,-0.7741,-0.7779,-0.7797,-0.7825,-0.7861,-0.789,-0.7928,-0.7962,-0.8007,-0.8044,-0.8056,-0.8071,-0.8064,-0.8064,-0.807,-0.8098,-0.8094,-0.8051,-0.8051,-0.8051,-0.8051,-0.8051,-0.8051,-0.757,-0.7593,-0.7619,-0.7657,-0.7687,-0.7718,-0.7738,-0.7766,-0.7795,-0.7836,-0.7864,-0.7893,-0.7934,-0.7974,-0.8007,-0.8019,-0.8031,-0.802,-0.8037,-0.8062,-0.8068,-0.8073,-0.8069,-0.8022,-0.8022,-0.8006,-0.8006,-0.8006]},{"header":{"parameterUnit":"m.s-1","parameterCategory":1,"la1":30.2991,"la2":30.254,"lo1":-89.0895,"lo2":-89.0444,"dy":0.0017,"dx":0.0017,"nx":28,"ny":28,"refTime":"2024-12-04T03:00:00:Z","depth":0,"parameterNumber":3,"parameterNumberName":"V-component_of_WINDS"},"data":[0,0,0,0,0,0,0,0,0,0,0,0,0,0,0,0,0,0,0,0,0,0,0,0,0,0,0,0,0,0,0,0,0,0,0,0,0,0,0,0,0,0,0,0,0,0,0,0,0,0,0,0,0,0,0,0,0,0,5.4898,5.4899,0,5.5007,5.5008,5.5009,5.4966,5.4964,5.4961,5.4959,5.5062,5.5067,5.5072,0,0,0,0,0,0,0,0,0,0,0,0,0,5.4643,5.4648,5.4898,5.4899,5.4901,5.5007,5.5008,5.501,5.4967,5.4964,5.496,5.4958,5.506,5.5067,5.5073,0,0,0,0,0,0,0,0,0,0,0,0,0,5.4753,5.465,5.4897,5.4892,5.4893,5.5006,5.5008,5.501,5.4967,5.4963,5.496,5.4956,5.5058,5.5066,5.5073,5.5197,0,0,5.5097,5.51,0,0,0,0,0,0,0,0,5.4747,5.4762,5.4891,5.4893,5.4894,5.4969,5.4956,5.5072,5.4968,5.4939,5.4959,5.4954,5.5034,5.5043,5.5072,5.5201,5.5206,5.5098,5.5102,5.5105,5.5108,0,0,0,0,0,0,0,5.4739,5.4757,5.4941,5.4893,5.4895,5.4881,5.4893,5.4978,5.5006,5.4941,5.4938,5.4952,5.5033,5.5064,5.5074,5.5207,5.5097,5.5104,5.5109,5.5112,5.5441,5.5445,0,0,0,0,0,0,5.4733,5.4751,5.4937,5.4944,5.481,5.4889,5.4902,5.4949,5.5005,5.501,5.4955,5.495,5.5053,5.5065,5.5077,5.5224,5.5105,5.5113,5.5117,5.5437,5.5442,5.5447,0,0,0,0,0,0,5.4727,5.475,5.4933,5.4847,5.4869,5.4897,5.495,5.4953,5.4984,5.5016,5.502,5.4982,5.5051,5.5066,5.5167,5.5227,5.5116,5.5123,5.5432,5.5439,5.5445,5.552,0,0,0,0,0,0,5.472,5.4748,5.4797,5.4849,5.4874,5.5024,5.4954,5.4958,5.4998,5.4992,5.5042,5.5047,5.5049,5.5156,5.5175,5.5236,5.5129,5.5427,5.5435,5.5443,5.5512,5.5528,5.5541,0,0,0,0,0,5.4711,5.4812,5.48,5.4823,5.4937,5.5028,5.5042,5.5045,5.5003,5.5051,5.5072,5.5045,5.5218,5.5167,5.5188,5.5252,5.5423,5.5433,5.5442,5.5505,5.5525,5.5541,0,0,0,0,0,0,5.4764,5.4819,5.4806,5.4927,5.4974,5.502,5.5081,5.5065,5.5122,5.5113,5.5112,5.5123,5.5227,5.5249,5.5192,5.5373,5.5314,5.5328,5.5355,5.5373,5.5388,5.538,5.5135,0,0,0,0,0,5.4791,5.4863,5.4906,5.5008,5.5033,5.5053,5.5093,5.5091,5.5138,5.5156,5.5184,5.5228,5.5292,5.5334,5.5394,5.5515,5.5524,5.5569,5.5583,5.5595,5.5607,5.5671,5.5691,5.5478,5.5477,5.5477,0,0,5.4845,5.4884,5.4929,5.502,5.5056,5.5128,5.507,5.5148,5.5201,5.5167,5.5265,5.5287,5.5335,5.5446,5.5496,5.5468,5.5668,5.5607,5.5616,5.5622,5.5683,5.5703,5.5721,5.5484,5.5483,5.5482,0,0,5.4981,5.5018,5.5108,5.5145,5.5201,5.5214,5.5235,5.5285,5.5299,5.5397,5.5373,5.5434,5.5545,5.558,5.5612,5.5761,5.5738,5.5781,5.5857,5.5919,5.5936,5.595,5.6002,5.6021,5.5792,5.5793,5.5793,0,5.504,5.5151,5.5155,5.5236,5.5276,5.5251,5.534,5.5375,5.5447,5.5473,5.5441,5.5579,5.561,5.5728,5.5765,5.5792,5.5814,5.5775,5.5933,5.5948,5.5962,5.6011,5.6031,5.5797,5.5797,5.5796,5.5796,0,5.522,5.5297,5.5362,5.5435,5.5482,5.5567,5.5581,5.5627,5.5621,5.5637,5.5736,5.5772,5.584,5.5868,5.5861,5.5985,5.5965,5.5933,5.5874,5.5987,5.6033,5.6052,5.5804,5.5802,5.5801,5.58,0,0,5.5393,5.5467,5.5491,5.5523,5.5583,5.564,5.5722,5.5791,5.583,5.588,5.5947,5.6041,5.6012,5.6049,5.6046,5.6101,5.6215,5.6062,5.6063,5.6088,5.6351,5.6375,5.6397,5.6201,5.6204,5.6207,5.6347,0,5.5532,5.568,5.5686,5.582,5.5889,5.5867,5.5938,5.598,5.5997,5.6056,5.6072,5.6139,5.6096,5.6118,5.6171,5.619,5.6268,5.618,5.6261,5.6263,5.6249,5.6421,5.6447,5.6577,5.6365,5.6368,5.6371,0,5.5715,5.5774,5.5915,5.5964,5.5994,5.6058,5.6121,5.6178,5.6225,5.6233,5.6274,5.6263,5.6344,5.6283,5.6393,5.6333,5.6366,5.638,5.6385,5.6392,5.6324,5.6432,5.6619,5.6638,5.6399,5.6397,5.6395,0,5.5826,5.5939,5.6039,5.6067,5.6127,5.6172,5.6198,5.6242,5.6282,5.6336,5.6362,5.6423,5.6456,5.6503,5.6507,5.6463,5.6618,5.6557,5.6624,5.6624,5.6658,5.6655,5.6852,5.668,5.668,5.668,5.6679,0,5.5981,5.6068,5.6089,5.615,5.6246,5.625,5.6344,5.6366,5.6405,5.6467,5.645,5.6509,5.6512,5.6571,5.6575,5.6665,5.668,5.6687,5.6687,5.6688,5.6687,5.6709,5.67,5.6685,5.6684,5.6683,5.6682,0,5.612,5.6138,5.6245,5.6293,5.6307,5.6376,5.6416,5.6472,5.6487,5.6566,5.6585,5.6607,5.6676,5.6686,5.6765,5.6767,5.6875,5.6866,5.686,5.6859,5.6925,5.6919,5.7142,5.7171,5.6981,5.6983,5.6985,0,5.6218,5.6285,5.6341,5.6384,5.6413,5.6481,5.6523,5.6528,5.6572,5.663,5.6679,5.6747,5.6801,5.6911,5.6932,5.6993,5.6984,5.7058,5.6993,5.6992,5.6984,5.698,5.6986,5.707,5.7072,5.7074,5.7076,0,5.6389,5.6395,5.6458,5.6524,5.6575,5.6626,5.6674,5.6709,5.672,5.6769,5.6841,5.6884,5.6966,5.7032,5.7092,5.7115,5.7097,5.7096,5.7115,5.7117,5.7111,5.7114,5.6894,5.7091,5.7089,5.7088,5.7087,5.7087,5.651,5.6568,5.6617,5.6687,5.6725,5.677,5.6826,5.6848,5.6909,5.6979,5.6977,5.7055,5.7098,5.7177,5.7205,5.7264,5.7239,5.7266,5.7273,5.7279,5.7286,5.7102,5.7274,5.7274,5.7274,5.7273,5.7273,0,5.668,5.671,5.6775,5.6844,5.6899,5.688,5.6931,5.6977,5.7047,5.709,5.7145,5.7226,5.729,5.7317,5.7379,5.7421,5.7414,5.7437,5.7433,5.7439,5.7305,5.7282,5.7441,5.7441,5.7441,5.7441,5.7441,5.7441,5.6775,5.6872,5.6883,5.6998,5.7026,5.7105,5.7136,5.7177,5.7212,5.7304,5.7358,5.7376,5.7412,5.7476,5.7533,5.7539,5.7562,5.7589,5.7591,5.7465,5.7448,5.7432,5.7411,5.7594,5.7595,5.772,5.7721,5.7722]}]]